TimeCDT,TemperatureF,Dew PointF,Humidity,Sea Level PressureIn,VisibilityMPH,Wind Direction,Wind SpeedMPH,Gust SpeedMPH,PrecipitationIn,Events,Conditions,WindDirDegrees,DateUTC
12:53 AM,77.0,57.0,50,29.99,10.0,ENE,6.9,-,N/A,,Clear,60,2013-08-18 05:53:00
1:53 AM,75.0,57.0,53,29.99,10.0,NE,4.6,-,N/A,,Clear,50,2013-08-18 06:53:00
2:53 AM,75.0,57.9,55,29.98,10.0,ENE,5.8,-,N/A,,Clear,60,2013-08-18 07:53:00
3:53 AM,73.0,57.9,59,29.98,10.0,ENE,5.8,-,N/A,,Clear,60,2013-08-18 08:53:00
4:53 AM,72.0,57.9,61,29.98,10.0,NE,6.9,-,N/A,,Clear,50,2013-08-18 09:53:00
5:53 AM,71.1,59.0,66,29.99,10.0,ENE,4.6,-,N/A,,Clear,60,2013-08-18 10:53:00
6:53 AM,69.1,59.0,70,30.01,10.0,ENE,4.6,-,N/A,,Clear,60,2013-08-18 11:53:00
7:53 AM,71.1,60.1,68,30.03,10.0,ENE,4.6,-,N/A,,Clear,60,2013-08-18 12:53:00
8:53 AM,75.9,63.0,64,30.04,10.0,East,4.6,-,N/A,,Clear,100,2013-08-18 13:53:00
9:53 AM,82.0,64.9,56,30.04,10.0,East,5.8,-,N/A,,Clear,100,2013-08-18 14:53:00
10:53 AM,86.0,62.1,44,30.04,10.0,North,3.5,-,N/A,,Clear,360,2013-08-18 15:53:00
11:53 AM,90.0,57.9,34,30.03,10.0,Variable,6.9,-,N/A,,Clear,0,2013-08-18 16:53:00
12:53 PM,91.9,57.9,32,30.03,10.0,NE,5.8,-,N/A,,Clear,50,2013-08-18 17:53:00
1:53 PM,95.0,57.0,28,30.01,10.0,NE,8.1,-,N/A,,Partly Cloudy,50,2013-08-18 18:53:00
2:53 PM,96.1,55.0,25,29.99,10.0,North,11.5,19.6,N/A,,Clear,10,2013-08-18 19:53:00
3:53 PM,96.1,52.0,22,29.97,10.0,Calm,Calm,-,N/A,,Clear,0,2013-08-18 20:53:00
4:53 PM,95.0,54.0,25,29.96,10.0,NE,8.1,-,N/A,,Clear,50,2013-08-18 21:53:00
5:53 PM,95.0,55.0,26,29.96,10.0,NE,8.1,-,N/A,,Clear,50,2013-08-18 22:53:00
6:53 PM,93.9,51.1,23,29.94,10.0,NE,5.8,-,N/A,,Clear,40,2013-08-18 23:53:00
7:53 PM,89.1,52.0,28,29.95,10.0,NNE,6.9,-,N/A,,Clear,20,2013-08-19 00:53:00
8:53 PM,86.0,54.0,33,29.96,10.0,ENE,5.8,-,N/A,,Clear,60,2013-08-19 01:53:00
9:53 PM,81.0,57.9,45,29.97,10.0,Calm,Calm,-,N/A,,Clear,0,2013-08-19 02:53:00
10:53 PM,81.0,59.0,47,29.99,10.0,Calm,Calm,-,N/A,,Clear,0,2013-08-19 03:53:00
11:53 PM,75.9,62.1,62,29.98,10.0,SE,5.8,-,N/A,,Clear,130,2013-08-19 04:53:00